Meteo pe oră la Bolshie Memi

Astăzi, 6 Mai, Joi

Timp Temperatura Precipitaţii Vânt Presiune Umiditate
00:00 +3°C° 0 mm 2 m/s 748 mmHg 84%
01:00 +3°C° 0 mm 2 m/s 748 mmHg 83%
02:00 +3°C° 0 mm 2 m/s 748 mmHg 82%
03:00 +4°C° 0 mm 2 m/s 748 mmHg 81%
04:00 +4°C° 0 mm 2 m/s 748 mmHg 81%
05:00 +4°C° 0 mm 3 m/s 748 mmHg 81%
06:00 +5°C° 0 mm 3 m/s 748 mmHg 81%
07:00 +7°C° 0 mm 3 m/s 748 mmHg 81%
08:00 +7°C° 0 mm 4 m/s 748 mmHg 80%
09:00 +10°C° 0 mm 4 m/s 748 mmHg 79%
10:00 +11°C° 0 mm 4 m/s 748 mmHg 75%
11:00 +12°C° 0 mm 5 m/s 748 mmHg 70%
12:00 +14°C° 0 mm 5 m/s 748 mmHg 65%
13:00 +14°C° 0.1 mm 4 m/s 749 mmHg 64%
14:00 +15°C° 0.1 mm 4 m/s 749 mmHg 62%
15:00 +17°C° 0.1 mm 4 m/s 749 mmHg 61%
16:00 +16°C° 0.1 mm 3 m/s 749 mmHg 63%
17:00 +16°C° 0.1 mm 2 m/s 749 mmHg 65%
18:00 +16°C° 0.1 mm 1 m/s 748 mmHg 67%
19:00 +15°C° 0 mm 1 m/s 749 mmHg 71%
20:00 +14°C° 0 mm 2 m/s 749 mmHg 75%
21:00 +13°C° 0 mm 2 m/s 749 mmHg 78%
22:00 +12°C° 0 mm 2 m/s 749 mmHg 79%
23:00 +10°C° 0 mm 3 m/s 749 mmHg 79%

Mâine, 7 Mai, Vineri

Timp Temperatura Precipitaţii Vânt Presiune Umiditate
00:00 +10°C° 0 mm 3 m/s 749 mmHg 80%
01:00 +10°C° 0 mm 3 m/s 749 mmHg 80%
02:00 +9°C° 0 mm 3 m/s 750 mmHg 80%
03:00 +9°C° 0 mm 3 m/s 750 mmHg 80%
04:00 +10°C° 0 mm 4 m/s 750 mmHg 78%
05:00 +10°C° 0 mm 4 m/s 750 mmHg 76%
06:00 +10°C° 0 mm 5 m/s 750 mmHg 73%
07:00 +12°C° 0 mm 5 m/s 750 mmHg 70%
08:00 +13°C° 0 mm 5 m/s 750 mmHg 66%
09:00 +14°C° 0 mm 6 m/s 750 mmHg 62%
10:00 +15°C° 0 mm 6 m/s 751 mmHg 61%
11:00 +15°C° 0 mm 6 m/s 751 mmHg 61%
12:00 +16°C° 0 mm 7 m/s 751 mmHg 60%
13:00 +15°C° 0.2 mm 6 m/s 751 mmHg 62%
14:00 +15°C° 0.2 mm 6 m/s 751 mmHg 64%
15:00 +15°C° 0.2 mm 6 m/s 751 mmHg 67%
16:00 +14°C° 0.2 mm 4 m/s 751 mmHg 70%
17:00 +13°C° 0.2 mm 3 m/s 751 mmHg 73%
18:00 +13°C° 0.2 mm 2 m/s 751 mmHg 77%
19:00 +13°C° 0.4 mm 2 m/s 751 mmHg 82%
20:00 +12°C° 0.4 mm 2 m/s 751 mmHg 87%
21:00 +10°C° 0.4 mm 3 m/s 751 mmHg 92%
22:00 +10°C° 0.2 mm 3 m/s 751 mmHg 91%
23:00 +10°C° 0.2 mm 4 m/s 751 mmHg 90%

Poimâine, 8 Mai, Sâmbătă

Timp Temperatura Precipitaţii Vânt Presiune Umiditate
00:00 +10°C° 0.2 mm 4 m/s 751 mmHg 89%
01:00 +10°C° 0.1 mm 4 m/s 751 mmHg 91%
02:00 +10°C° 0.1 mm 3 m/s 751 mmHg 93%
03:00 +9°C° 0.1 mm 3 m/s 751 mmHg 95%
04:00 +10°C° 0 mm 3 m/s 750 mmHg 93%
05:00 +11°C° 0 mm 4 m/s 750 mmHg 91%
06:00 +11°C° 0 mm 4 m/s 750 mmHg 88%
07:00 +11°C° 0 mm 6 m/s 749 mmHg 81%
08:00 +14°C° 0 mm 7 m/s 749 mmHg 74%
09:00 +15°C° 0 mm 8 m/s 748 mmHg 67%
10:00 +15°C° 0 mm 9 m/s 748 mmHg 65%
11:00 +16°C° 0 mm 10 m/s 747 mmHg 62%
12:00 +16°C° 0 mm 11 m/s 747 mmHg 60%
13:00 +14°C° 1.4 mm 10 m/s 747 mmHg 69%
14:00 +13°C° 1.4 mm 9 m/s 747 mmHg 78%
15:00 +12°C° 1.4 mm 9 m/s 747 mmHg 87%
16:00 +12°C° 0.8 mm 8 m/s 747 mmHg 86%
17:00 +12°C° 0.8 mm 7 m/s 747 mmHg 85%
18:00 +12°C° 0.8 mm 5 m/s 747 mmHg 85%
19:00 +10°C° 0.1 mm 5 m/s 748 mmHg 86%
20:00 +9°C° 0.1 mm 5 m/s 748 mmHg 87%
21:00 +8°C° 0.1 mm 5 m/s 749 mmHg 89%
22:00 +7°C° 0 mm 4 m/s 750 mmHg 90%
23:00 +7°C° 0 mm 3 m/s 750 mmHg 91%

9 Mai, Duminică

Timp Temperatura Precipitaţii Vânt Presiune Umiditate
00:00 +7°C° 0 mm 3 m/s 751 mmHg 91%
01:00 +5°C° 0 mm 3 m/s 751 mmHg 91%
02:00 +5°C° 0 mm 3 m/s 752 mmHg 91%
03:00 +5°C° 0 mm 3 m/s 752 mmHg 90%

10 Mai, Luni

Timp Temperatura Precipitaţii Vânt Presiune Umiditate

11 Mai, Marţi

Timp Temperatura Precipitaţii Vânt Presiune Umiditate
Arată mai mult

Formular de consimțământ

Meteoprog și furnizorii noștri de servicii pot stoca și accesa date personale, precum cookies, identificatori de dispozitiv sau alte tehnologii similare pe dispozitivul dumneavoastră și procesa astfel de date pentru a personaliza conținutul și reclamele, dar și pentru a oferi caracteristici de social media și pentru a analiza traficul.

  • Stocarea și/sau accesarea informațiilor pe dispozitivul dumneavoastră

    Cookies, identificatori de dispozitiv sau alte informații pot fi stocate sau accesate pe dispozitiv în scopurile indicate mai sus.

  • Reclame și conținut personalizat, evaluarea reclamelor și a conținutului, informații despre audiențe și dezvoltarea produselor

    Reclamele și conținutul pot fi personalizate pe baza unui profil. Pot fi adăugate date suplimentare pentru a personaliza mai bine reclamele și conținutul. Performanța reclamelor și conținutului poate fi măsurată. Pot fi obținute informații despre utilizatorii care au văzut reclamele și conținutul. Aceste date pot fi utilizate pentru a dezvolta sau îmbunătăți experiența utilizatorilor, sistemele și software-ul.

Dând clic pe ‘Sunt de acord’, permiteți utilizarea cookie-urilor menționate, a identificatorilor de dispozitiv, balizelor web sau altor tehnologii similare. Setările pot fi modificate din browser-ul dispozitivului dumneavoastră.

În anumite scopuri, interesele legitime pot prima asupra consimțământului. Puteți citi mai multe informații în acest sens în Politica privind Confidențialitatea Datelor și Cookie.